Location: Gälforsberget
(66.6500°N, 22.4167°E)
Time: 15:54:22
(UTC+00:00)

NOSS 3-4 (A) - Pass Details

Date: 11 April 2026
Orbit: 769 x 1442 km, 63.4° (Epoch: 10 January)

Event Time Altitude Azimuth Distance (km) Brightness Sun altitude
Exits shadow 22:10:28 - 229° (SW) 2,898 5.6 -14.7°
Reaches altitude 10° 22:11:43 10° 226° (SW) 2,434 5.2 -14.7°
Maximum altitude 22:17:06 50° 152° (SSE) 1,136 3.5 -14.7°
Drops below altitude 10° 22:23:18 10° 79° (E) 2,804 6.0 -14.7°
Sets 22:26:11 0° 75° (ENE) 3,865 6.8 -14.8°
